Location: Volkssternwarte_EN
(51.3230°N, 7.4010°E)
Time: 22:55:08
(UTC+02:00)

N. Korean satellite - Pass Details

Date: 01 October 2021
Orbit: 450 x 495 km, 97.3° (Epoch: 15 October)

Event Time Altitude Azimuth Distance (km) Brightness Sun altitude
Rises 05:49:08 0° 28° (NNE) 2,546 10.9 -16.6°
Reaches altitude 10° 05:51:51 10° 52° (NE) 1,670 10.4 -16.2°
Maximum altitude 05:54:06 16° 90° (E) 1,357 9.9 -15.8°
Drops below altitude 10° 05:56:21 10° 129° (SE) 1,676 9.8 -15.5°
Sets 05:59:05 0° 152° (SSE) 2,558 10.4 -15.1°
